Total_Precipitation_Accumulation
2.08 2.52 2.82 3.35 3.94 4.37 4.79 4.98 5.05 4.95 4.79 4.43 4.13 3.88 3.63 3.41 3.16 2.96 2.86 2.79 2.72 2.93 3.42 3.20 3.48 3.41 3.43 3.49 3.54 3.69 3.61 3.32 3.52 3.63 3.19 2.57 2.11 2.07 1.84 1.79 1.84 1.90 1.91
2.02 2.55 2.86 3.06 3.49 4.01 4.48 4.81 4.99 4.87 4.49 4.15 4.00 3.90 3.85 3.46 3.18 3.15 3.30 3.13 3.13 3.16 3.19 3.43 3.38 3.43 3.60 3.57 3.54 3.70 3.47 3.11 3.40 3.78 3.85 3.12 2.68 2.18 1.66 1.78 1.91 2.09 2.19
2.31 2.61 2.81 2.93 3.18 3.59 3.89 4.00 4.18 4.15 4.00 4.04 4.07 4.03 4.06 3.66 3.59 3.60 3.62 3.40 3.39 3.40 3.40 3.38 3.29 3.31 3.15 3.26 3.35 3.37 3.39 3.31 3.25 3.56 3.92 3.50 3.01 2.57 1.93 1.81 1.86 2.13 2.44
1.99 2.20 2.49 2.77 2.94 3.17 3.49 3.71 3.77 3.72 3.65 3.77 3.84 3.75 3.57 3.46 3.63 3.90 3.83 3.56 3.35 3.23 3.05 3.00 3.17 3.19 2.98 3.05 2.70 2.87 3.08 3.08 2.94 3.23 3.29 3.32 3.32 3.21 2.51 2.05 1.88 2.03 2.23
1.73 1.84 2.05 2.38 2.51 2.84 3.11 3.32 3.57 3.66 3.61 3.68 3.68 3.72 3.56 3.55 3.61 3.62 3.67 3.48 3.30 2.99 2.66 2.69 2.90 2.87 2.77 2.68 2.58 2.78 2.62 2.54 2.62 2.88 3.09 3.18 3.27 3.13 2.94 2.49 2.43 2.38 2.23
1.51 1.73 1.91 2.21 2.37 2.50 2.64 2.75 2.96 3.23 3.41 3.45 3.42 3.48 3.43 3.42 3.39 3.38 3.28 3.08 2.93 2.74 2.42 2.30 2.48 2.60 2.64 2.59 2.55 2.64 2.52 2.56 2.70 2.72 2.79 3.04 3.06 3.03 3.17 2.71 2.54 2.56 2.29
1.24 1.47 1.64 1.81 2.03 2.14 2.26 2.41 2.70 3.04 3.11 3.07 3.03 3.14 3.22 3.24 3.18 3.17 3.03 2.82 2.59 2.38 2.31 2.30 2.41 2.44 2.49 2.38 2.43 2.48 2.50 2.69 2.77 2.71 2.65 2.76 2.79 2.90 3.17 3.12 2.78 2.64 2.43
1.00 1.14 1.41 1.73 1.90 1.90 1.97 2.13 2.44 2.71 2.75 2.67 2.81 3.07 3.15 3.18 3.10 3.14 2.83 2.57 2.37 2.32 2.41 2.39 2.24 2.19 2.29 2.17 2.45 2.38 2.44 2.68 2.76 2.50 2.77 2.78 2.76 3.05 3.28 3.39 3.48 3.14 2.82
1.01 1.08 1.18 1.40 1.54 1.61 1.68 1.83 2.26 2.55 2.64 2.71 2.83 2.96 3.07 3.03 2.99 2.91 2.63 2.37 2.39 2.33 2.46 2.41 2.30 2.20 2.29 2.41 2.69 2.64 2.58 2.80 2.79 2.81 3.01 2.94 2.85 3.00 3.13 3.34 3.61 3.72 3.31
0.86 0.93 0.98 1.10 1.21 1.39 1.66 1.85 2.02 2.35 2.45 2.55 2.71 2.74 2.97 2.86 2.70 2.66 2.43 2.18 2.10 2.17 2.35 2.46 2.37 2.29 2.34 2.53 2.73 2.72 2.86 3.03 3.07 3.15 3.23 3.17 2.98 3.07 3.11 3.15 3.41 3.76 3.69
0.77 0.82 0.95 1.08 1.18 1.33 1.55 1.69 1.73 1.96 2.16 2.30 2.48 2.47 2.46 2.53 2.60 2.43 2.17 2.08 2.10 2.17 2.21 2.35 2.40 2.35 2.41 2.54 2.61 2.57 2.89 3.03 3.06 3.05 3.05 3.03 3.18 3.15 3.02 3.13 3.33 3.62 3.72
0.83 0.88 1.04 1.17 1.25 1.39 1.44 1.49 1.58 1.79 2.00 2.19 2.40 2.46 2.44 2.49 2.53 2.38 2.19 2.16 2.20 2.20 2.16 2.25 2.29 2.19 2.21 2.44 2.46 2.51 2.81 2.98 2.87 2.89 2.91 2.67 2.74 2.83 2.69 2.83 2.92 3.08 3.34
0.91 0.97 1.08 1.12 1.12 1.23 1.38 1.42 1.44 1.65 1.89 2.11 2.41 2.58 2.62 2.58 2.50 2.32 2.09 2.00 1.95 1.98 1.99 2.03 2.06 2.12 2.28 2.40 2.40 2.43 2.43 2.46 2.54 2.76 2.87 2.66 2.63 2.55 2.56 2.60 2.59 2.66 2.76
0.93 1.00 1.02 1.14 1.14 1.16 1.31 1.34 1.41 1.52 1.79 2.03 2.24 2.37 2.26 2.19 2.19 2.08 1.89 1.79 1.77 1.79 1.85 1.94 2.04 2.12 2.20 2.27 2.37 2.44 2.34 2.31 2.36 2.49 2.56 2.55 2.51 2.43 2.53 2.45 2.47 2.54 2.71
0.84 0.86 0.87 0.94 0.99 1.12 1.25 1.18 1.23 1.31 1.48 1.67 1.77 1.91 1.89 1.85 1.82 1.87 1.89 1.87 1.90 1.85 1.93 2.01 2.03 2.03 2.02 1.95 2.01 2.11 2.11 2.24 2.18 2.09 2.10 2.13 2.18 2.18 2.22 2.07 2.26 2.53 2.69
0.59 0.56 0.74 0.84 0.80 0.84 0.95 0.92 0.97 1.13 1.29 1.38 1.48 1.72 1.83 1.83 1.82 1.88 2.00 2.01 1.97 1.95 1.99 1.95 1.99 1.99 1.72 1.91 1.96 1.96 2.05 2.12 2.13 2.05 1.93 1.83 1.82 1.77 1.80 1.77 1.87 2.18 2.42
0.59 0.53 0.61 0.76 0.76 0.77 0.80 0.91 1.04 1.18 1.29 1.43 1.58 1.78 1.89 1.96 1.98 1.95 2.07 2.02 2.02 2.09 2.05 1.98 1.98 2.01 2.07 2.12 1.95 1.81 1.78 1.87 1.93 1.90 1.87 1.64 1.55 1.73 1.71 1.77 1.75 1.78 1.95
0.65 0.60 0.58 0.59 0.64 0.71 0.79 0.95 1.24 1.49 1.55 1.69 1.89 2.00 2.13 2.08 2.06 2.07 2.10 2.18 2.27 2.31 2.29 2.22 2.14 2.11 2.09 2.08 1.87 1.87 1.78 1.78 1.78 1.80 1.84 1.82 1.74 1.80 1.93 1.90 1.82 1.71 1.68
0.60 0.65 0.69 0.71 0.76 0.82 0.86 1.04 1.27 1.59 1.79 1.84 1.94 2.10 2.20 2.24 2.25 2.26 2.25 2.35 2.49 2.45 2.37 2.30 2.31 2.25 2.24 2.32 2.11 2.13 1.97 1.95 1.95 1.98 1.98 1.96 1.86 2.01 1.97 1.86 1.84 1.79 1.78
0.71 0.72 0.75 0.87 1.06 1.13 1.14 1.26 1.40 1.54 1.74 1.81 1.92 2.09 2.33 2.39 2.42 2.57 2.68 2.65 2.62 2.49 2.50 2.48 2.43 2.42 2.45 2.69 2.50 2.34 2.15 2.14 2.13 2.23 2.22 2.26 2.09 2.09 2.03 1.86 1.87 1.89 1.91
0.82 0.80 0.83 0.99 1.24 1.37 1.41 1.51 1.67 1.75 1.76 1.84 1.99 2.18 2.35 2.45 2.53 2.73 2.82 2.81 2.75 2.75 2.70 2.62 2.64 2.62 2.60 2.78 2.53 2.33 2.17 2.23 2.37 2.37 2.29 2.34 2.36 2.15 2.15 2.10 2.00 1.99 2.01
0.94 0.97 1.02 1.18 1.41 1.57 1.56 1.64 1.74 1.76 1.80 1.81 1.95 2.09 2.23 2.25 2.34 2.63 2.73 2.85 2.90 2.85 2.77 2.72 2.56 2.56 2.54 2.45 2.31 2.21 2.18 2.28 2.41 2.47 2.42 2.38 2.37 2.14 2.06 1.92 1.89 1.94 1.84
0.99 1.06 1.12 1.31 1.58 1.76 1.79 1.87 1.79 1.87 1.90 1.92 2.05 2.19 2.26 2.30 2.40 2.52 2.57 2.68 2.76 2.72 2.60 2.61 2.55 2.48 2.47 2.45 2.21 2.00 1.97 2.03 2.06 2.21 2.38 2.30 2.19 1.99 1.80 1.75 1.72 1.64 1.52
0.97 1.05 1.17 1.26 1.37 1.58 1.79 1.91 1.95 1.99 1.99 2.02 2.08 2.17 2.28 2.26 2.35 2.48 2.58 2.70 2.78 2.86 2.76 2.63 2.50 2.46 2.43 2.31 2.13 1.94 1.85 1.97 2.07 2.17 2.25 2.13 2.01 1.82 1.66 1.59 1.50 1.46 1.53
0.99 1.05 1.16 1.23 1.29 1.37 1.49 1.57 1.70 1.82 1.88 1.96 2.03 2.07 2.11 2.20 2.31 2.38 2.50 2.47 2.54 2.58 2.55 2.49 2.46 2.42 2.33 2.18 2.09 1.91 1.79 1.91 2.09 2.16 2.17 2.02 1.96 1.84 1.74 1.67 1.61 1.60 1.63
1.09 1.11 1.18 1.20 1.22 1.32 1.50 1.58 1.67 1.79 1.93 2.03 2.06 2.02 1.97 2.04 2.11 2.19 2.22 2.25 2.13 2.12 2.05 2.05 2.05 1.98 1.87 1.75 1.63 1.60 1.62 1.71 1.89 1.88 1.94 2.05 2.02 1.95 1.86 1.76 1.67 1.64 1.62